Regional Weather Roundup
Issued by NWS

Home | Current Version | Previous Version | Graphics & Text | Print | Product List | Glossary On
Versions: 1 2 3 4 5 6 7 8 9 10 11 12 13 14 15 16 17 18 19 20 21 22 23 24 25 26 27 28 29 30 31 32 33 34 35 36 37 38 39 40 41 42 43 44 45 46 47 48 49 50
000
ASUS43 KOAX 190110
RWRNE

WEATHER ROUNDUP FOR NEBRASKA
NATIONAL WEATHER SERVICE OMAHA NE
800 PM CDT THU SEP 18 2014

NOTES: SATELLITE DATA IS BEING USED TO AUGMENT CLOUD COVER ABOVE
       12000 FEET.
       "FAIR" INDICATES FEW OR NO CLOUDS BELOW 12,000 FEET WITH NO
       SIGNIFICANT WEATHER AND/OR OBSTRUCTIONS TO VISIBILITY.

  * THESE STATIONS DO NOT REPORT WEATHER SUCH AS RAIN...SNOW OR FOG.

NEZ001>004-019>022-054>056-190200-
NEBRASKA PANHANDLE

CITY           SKY/WX    TMP DP  RH WIND       PRES   REMARKS
SCOTTSBLUFF    CLEAR     77  50  38 E10       29.83R
ALLIANCE       CLEAR     74  61  63 S17       29.85S
CHADRON        PTCLDY    82  60  47 S18       29.75S
KIMBALL        CLEAR     78  44  30 S10       29.91S
SIDNEY         CLEAR     76  60  57 SE14      29.91S
$$

NEZ057>060-069>072-079>082-190200-
SOUTHWEST NEBRASKA

CITY           SKY/WX    TMP DP  RH WIND       PRES   REMARKS
NORTH PLATTE   CLOUDY    67  61  81 S8        29.90S
IMPERIAL       CLEAR     67  61  81 E7        29.90S
LEXINGTON      PTCLDY    66  64  93 SE5       29.90F FOG
MCCOOK         CLEAR     66  61  84 E6        29.89F
OGALLALA       CLEAR     67  63  85 E5        29.90S
$$

NEZ005>010-023>029-035>040-094-190200-
NORTH CENTRAL NEBRASKA

CITY           SKY/WX    TMP DP  RH WIND       PRES   REMARKS
VALENTINE      CLEAR     73  62  68 S15       29.82S
AINSWORTH      CLEAR     69  61  75 S12       29.85S
BROKEN BOW     CLOUDY    69  64  84 S10       29.90S
O`NEILL        CLEAR     71  62  74 S9        29.87F
ORD            CLOUDY    70  64  81 S8        29.88S
THEDFORD       CLOUDY    68  62  79 S13G18    29.89S
$$

NEZ041-046>049-061>064-073>077-083>087-190200-
SOUTH CENTRAL NEBRASKA

CITY           SKY/WX    TMP DP  RH WIND       PRES   REMARKS
GRAND ISLAND   CLEAR     69  64  84 SE7       29.90F
AURORA         CLEAR     68  65  89 SE6       29.90F
HASTINGS       CLEAR     71  62  73 SE8       29.90S
HEBRON         CLEAR     72  63  72 SE5       29.91S
HOLDREGE       CLEAR     67  64  91 CALM      29.90S
KEARNEY *      CLEAR     66  63  88 E6        29.90F
YORK           CLEAR     68  66  94 SE7       29.92S
$$

NEZ011>018-030>034-042>045-190200-
NORTHEAST NEBRASKA

CITY           SKY/WX    TMP DP  RH WIND       PRES   REMARKS
NORFOLK        CLEAR     68  59  73 SE8       29.91S
ALBION         CLEAR     69  63  81 S7        29.90F
BLAIR          CLEAR     64  56  73 E6        29.96S
COLUMBUS *     PTCLDY    70  57  64 SE6       29.93S
FREMONT        CLEAR     69  58  68 SE8       29.96R
TEKAMAH        CLEAR     66  58  75 SE8       29.95S
WAYNE          CLEAR     65  60  82 SE8       29.92F
$$

NEZ050>053-065>068-078-088>093-190200-
SOUTHEAST NEBRASKA

CITY           SKY/WX    TMP DP  RH WIND       PRES   REMARKS
LINCOLN        CLEAR     70  59  68 SE15      29.95R
OMAHA EPPLEY   PTCLDY    68  54  60 SE10      29.97R
BEATRICE       PTCLDY    66  61  84 SE13      29.95S
FALLS CITY     CLOUDY    64  60  87 SE7       29.99R
NEBRASKA CITY  CLEAR     64  55  72 S9        29.98S
PLATTSMOUTH    CLEAR     65  56  71 SE7       29.97S
$$

NEZ044-045-051>053-067-190200-
OMAHA AREA

CITY           SKY/WX    TMP DP  RH WIND       PRES   REMARKS
OMAHA EPPLEY   PTCLDY    68  54  60 SE10      29.97R
BLAIR          CLEAR     64  56  73 E6        29.96S
FREMONT        CLEAR     69  58  68 SE8       29.96R
MILLARD        CLEAR     67  57  70 SE6       29.96R
OFFUTT AFB     CLEAR     64  61  90 E8        29.96S
PLATTSMOUTH    CLEAR     65  56  71 SE7       29.97S
WAHOO          FAIR      66  57  74 SE7       29.95S
$$



USA.gov is the U.S. government's official web portal to all federal, state and local government web resources and services.